Location: Newark
(43.0000°N, 1.6781°W)
Time: 09:33:13
(UTC+00:00)

AO-7 - Pass Details

Date: 13 December 2022
Orbit: 1440 x 1459 km, 101.9° (Epoch: 28 January)

Event Time Altitude Azimuth Distance (km) Brightness Sun altitude
Rises 04:22:04 0° 21° (NNE) 4,547 ? -33.3°
Reaches altitude 10° 04:24:58 10° 26° (NNE) 3,567 ? -32.7°
Maximum altitude 04:33:04 53° 102° (ESE) 1,729 ? -31.3°
Drops below altitude 10° 04:41:08 10° 178° (S) 3,561 ? -29.8°
Sets 04:44:00 0° 183° (S) 4,539 ? -29.3°
